www.srh.weather.gov   
NOAA logo - Click to go to the NOAA homepage   NWS logo
Weather Roundup
Enter Your "City, ST" or zip code   
Current Version              Previous Version:    01  02  03  04  05  06  07  08  09  10  11  12  13  14  15  16  17  18  19  20  21  22  23  24  25  26  27  28  29  30  
   31  32  33  34  35  36  37  38  39  40  41  42  43  44  45  46  47  48  49  50  51  52  53  54  55  56  57  58  59  60  
[Printable]
195
ASUS44 KCRP 260710
HRRCRP

SOUTH TEXAS REGIONAL WEATHER ROUNDUP
NATIONAL WEATHER SERVICE CORPUS CHRISTI TX
200 AM CDT SUN OCT 26 2014


TXZ229>244-260800-
...CORPUS CHRISTI AREA OBSERVATIONS...

CITY           SKY/WX    TMP DP  RH WIND       PRES   REMARKS
CORPUS CHRISTI CLEAR     65  62  90 CALM      30.07F
NAS CORPUS CHR CLEAR     70  67  90 S5        30.06F
ROCKPORT       CLEAR     67  63  87 S5        30.07S
KINGSVILLE NAS CLEAR     63  62  97 CALM      30.07F
ALICE          CLEAR     62  59  90 SW3       30.07F
FALFURRIAS     CLEAR     61  59  93 CALM      30.07F
$$

...VICTORIA AREA OBSERVATIONS...

CITY           SKY/WX    TMP DP  RH WIND       PRES   REMARKS
VICTORIA       CLEAR     60  58  92 W3        30.08F
BEEVILLE       FAIR      64  63  95 CALM      30.07F
PLEASANTON     CLEAR     65  60  86 CALM      30.08F
SAN ANTONIO    CLEAR     67  60  78 SE5       30.09F
$$

...LAREDO AREA OBSERVATIONS...

CITY           SKY/WX    TMP DP  RH WIND       PRES   REMARKS
LAREDO         CLEAR     69  60  73 SE8       30.10F
COTULLA        CLEAR     68  60  75 SE6       30.07F
DEL RIO        CLEAR     67  59  75 E9        30.05F
MCALLEN        CLEAR     66  64  93 SE3       30.08F
HEBBRONVILLE   CLEAR     61  58  91 S5        30.09F
$$

...OTHER TEXAS OBSERVATIONS...

CITY           SKY/WX    TMP DP  RH WIND       PRES   REMARKS
BROWNSVILLE    CLEAR     66  64  93 CALM      30.07F
HOUSTON        CLEAR     60  59  96 CALM      30.07F
COL. STATION   CLEAR     65  59  81 S5        30.07F
AUSTIN         PTCLDY    63  58  83 S3        30.07F
WACO           CLEAR     67  60  78 S8        30.05F
FORT WORTH     CLEAR     71  60  68 S10       30.02F
WICHITA FALLS  CLEAR     69  57  65 S12       29.98F
LUBBOCK        CLEAR     67  49  52 S17G24    30.06F
EL PASO        CLEAR     65  47  52 S5        30.11F
$$

...MARINE OBSERVATIONS...

STATION/POSITION TIME  SKY/WX   TEMP    WIND        PRES    VSBY  WAVE   SWELL
                                AIR SEA DIR/SP/G                  HT/PER HT/PER
                 (UTC)          (F)     (DEG/KT/KT) (MB)    (MI)  (FT/S) (FT/S)
PORT ARANSAS     0700            77 78  150/ 11/ 11 1018.7F
BUOY 90 E PORT A 0700            76 81  130/  6/  8 1018.9F         2/ 7   2/ 7
BUOY 45 SE BAFFI 0700            77 80  150/  6/  8 1017.9F         2/ 8   2/ 8
BUOY 200 E PT IS 0700            76 81  110/  4/  6 1018.1F         3/ 7   2/ 7
BUOY 15 E GALVES 0700            74 77  180/  4/  6 1018.1F         1/ 7   2/ 7
$$



National Weather Service
Disclaimer
Last Modified: August 31, 2005
Privacy Policy